Find Starlink 32128

NORAD ID: 60272 Int'l Des: 2024-131 Owner: SPXS Country: US Constellation: starlink operational
LEOCIRCULAR

現在のビュー

3D地球を読み込み中...

About Starlink 32128

Starlink 32128 (NORAD 60272) is a starlink constellation satellite (v2 mini) launched Jul 27, 2024 by SPXS of US. It operates in LEO, CIRCULAR orbit with a mass of 730.00 kg.

次回通過

Passes for default location (London). Set your location on the main map for personalized predictions.

高度履歴

Loading altitude history...

軌道要素

1 60272U 24131T 26236.35236172 .00000894 00000-0 37588-4 0 9992
2 60272 53.1626 352.5843 0001101 342.7774 17.3191 15.34387935117402
Epoch: Aug 24, 2026 • Age: 28 hours

現在のステータス

高度 464.0 km
遠地点 / 近地点 N/A
速度 7.64 km/s
衛星直下点 30.41°N, 152.27°W
打ち上げ日 Jul 27, 2024
運用期間 2 years
タイプ internet

技術仕様

分類 Payload
質量 730.00 kg
乾燥質量 700.00 kg
総質量 730.00 kg
長さ 0.30 m
直径 4.10 m
スパン 29.00 m
形状 Box + pan
製造者 SPXS
バスタイプ Starlink V2M
フェーズステータス In Orbit
所有者/国 SPXS/US

Most Searched